Time,TemperatureF,DewpointF,PressureIn,WindDirection,WindDirectionDegrees,WindSpeedMPH,WindSpeedGustMPH,Humidity,HourlyPrecipIn,Conditions,Clouds,dailyrainin,SoftwareType,DateUTC
2013-02-17 00:10:00,31.2,29.0,29.61,NNW,327,5.0,5.0,91,0.00,,,0.02,weatherlink.com 1.10,2013-02-17 05:10:00,
2013-02-17 00:26:00,30.9,29.0,29.61,NNW,345,0.0,5.0,91,0.00,,,0.00,weatherlink.com 1.10,2013-02-17 05:26:00,
2013-02-17 00:41:00,30.9,29.0,29.61,NNW,331,0.0,5.0,92,0.00,,,0.00,weatherlink.com 1.10,2013-02-17 05:41:00,
2013-02-17 00:56:00,30.9,29.0,29.59,North,354,0.0,5.0,92,0.00,,,0.00,weatherlink.com 1.10,2013-02-17 05:56:00,
2013-02-17 01:11:00,30.8,29.0,29.59,North,2,0.0,7.0,92,0.00,,,0.00,weatherlink.com 1.10,2013-02-17 06:11:00,
2013-02-17 01:26:00,30.7,29.0,29.58,NNE,14,0.0,6.0,92,0.00,,,0.00,weatherlink.com 1.10,2013-02-17 06:26:00,
2013-02-17 01:41:00,30.3,28.0,29.56,North,3,0.0,10.0,91,0.00,,,0.00,weatherlink.com 1.10,2013-02-17 06:41:00,
2013-02-17 01:56:00,30.0,28.0,29.57,NNE,19,1.0,7.0,90,0.00,,,0.00,weatherlink.com 1.10,2013-02-17 06:56:00,
2013-02-17 02:11:00,29.6,27.0,29.56,NNW,348,1.0,5.0,89,0.00,,,0.00,weatherlink.com 1.10,2013-02-17 07:11:00,
2013-02-17 02:26:00,29.3,26.0,29.53,North,354,2.0,7.0,88,0.00,,,0.00,weatherlink.com 1.10,2013-02-17 07:26:00,
2013-02-17 02:41:00,28.8,26.0,29.52,NE,52,0.0,7.0,88,0.00,,,0.00,weatherlink.com 1.10,2013-02-17 07:41:00,
2013-02-17 02:56:00,28.4,26.0,29.52,North,351,0.0,7.0,89,0.00,,,0.00,weatherlink.com 1.10,2013-02-17 07:56:00,
2013-02-17 03:11:00,27.9,26.0,29.51,North,3,1.0,5.0,91,0.00,,,0.00,weatherlink.com 1.10,2013-02-17 08:11:00,
2013-02-17 03:26:00,27.3,25.0,29.50,NNW,339,2.0,8.0,91,0.00,,,0.00,weatherlink.com 1.10,2013-02-17 08:26:00,
2013-02-17 03:41:00,26.9,25.0,29.48,SSW,201,0.0,6.0,91,0.00,,,0.00,weatherlink.com 1.10,2013-02-17 08:41:00,
2013-02-17 03:56:00,26.5,25.0,29.48,North,357,2.0,8.0,92,0.00,,,0.00,weatherlink.com 1.10,2013-02-17 08:56:00,
2013-02-17 04:11:00,26.1,24.0,29.48,NNW,339,0.0,10.0,91,0.00,,,0.00,weatherlink.com 1.10,2013-02-17 09:11:00,
2013-02-17 04:26:00,25.7,24.0,29.48,NNW,342,0.0,8.0,91,0.00,,,0.00,weatherlink.com 1.10,2013-02-17 09:26:00,
2013-02-17 04:41:00,25.3,23.0,29.47,NNW,338,2.0,8.0,91,0.00,,,0.00,weatherlink.com 1.10,2013-02-17 09:41:00,
2013-02-17 04:56:00,24.9,23.0,29.46,NNW,328,3.0,8.0,91,0.00,,,0.00,weatherlink.com 1.10,2013-02-17 09:56:00,
2013-02-17 05:12:00,24.2,22.0,29.44,NW,324,3.0,9.0,91,0.00,,,0.00,weatherlink.com 1.10,2013-02-17 10:12:00,
2013-02-17 05:27:00,23.6,22.0,29.44,NNW,335,2.0,12.0,92,0.00,,,0.00,weatherlink.com 1.10,2013-02-17 10:27:00,
2013-02-17 05:42:00,23.2,21.0,29.43,NNW,346,2.0,13.0,92,0.00,,,0.00,weatherlink.com 1.10,2013-02-17 10:42:00,
2013-02-17 05:57:00,22.6,20.0,29.41,WNW,295,0.0,10.0,91,0.00,,,0.00,weatherlink.com 1.10,2013-02-17 10:57:00,
2013-02-17 06:12:00,22.2,20.0,29.41,NNE,13,2.0,9.0,91,0.00,,,0.00,weatherlink.com 1.10,2013-02-17 11:12:00,
2013-02-17 06:27:00,21.9,20.0,29.41,WNW,302,0.0,15.0,91,0.00,,,0.00,weatherlink.com 1.10,2013-02-17 11:27:00,
2013-02-17 06:42:00,21.8,20.0,29.39,NNE,23,3.0,9.0,92,0.00,,,0.00,weatherlink.com 1.10,2013-02-17 11:42:00,
2013-02-17 06:57:00,21.6,20.0,29.38,NW,315,3.0,11.0,92,0.00,,,0.00,weatherlink.com 1.10,2013-02-17 11:57:00,
2013-02-17 07:12:00,21.5,20.0,29.38,SSW,196,0.0,14.0,92,0.00,,,0.00,weatherlink.com 1.10,2013-02-17 12:12:00,
2013-02-17 07:27:00,21.6,20.0,29.37,NW,304,3.0,10.0,93,0.00,,,0.00,weatherlink.com 1.10,2013-02-17 12:27:00,
2013-02-17 07:42:00,21.5,20.0,29.36,NW,319,3.0,14.0,92,0.00,,,0.00,weatherlink.com 1.10,2013-02-17 12:42:00,
2013-02-17 07:57:00,21.5,20.0,29.36,NNW,337,4.0,9.0,93,0.00,,,0.00,weatherlink.com 1.10,2013-02-17 12:57:00,
2013-02-17 08:12:00,21.4,20.0,29.36,West,279,4.0,13.0,93,0.00,,,0.00,weatherlink.com 1.10,2013-02-17 13:12:00,
2013-02-17 08:27:00,21.1,19.0,29.35,NW,304,1.0,14.0,92,0.00,,,0.00,weatherlink.com 1.10,2013-02-17 13:27:00,
2013-02-17 08:42:00,20.8,19.0,29.33,NW,314,1.0,7.0,92,0.00,,,0.00,weatherlink.com 1.10,2013-02-17 13:42:00,
2013-02-17 08:57:00,20.4,19.0,29.34,SW,230,4.0,14.0,92,0.00,,,0.00,weatherlink.com 1.10,2013-02-17 13:57:00,
2013-02-17 09:12:00,20.5,19.0,29.34,NNW,331,1.0,10.0,92,0.00,,,0.00,weatherlink.com 1.10,2013-02-17 14:12:00,
2013-02-17 09:27:00,20.5,19.0,29.34,NNW,334,3.0,9.0,92,0.00,,,0.00,weatherlink.com 1.10,2013-02-17 14:27:00,
2013-02-17 09:42:00,20.4,18.0,29.34,NW,318,2.0,10.0,91,0.00,,,0.00,weatherlink.com 1.10,2013-02-17 14:42:00,
2013-02-17 09:57:00,20.4,18.0,29.34,West,279,2.0,14.0,91,0.00,,,0.00,weatherlink.com 1.10,2013-02-17 14:57:00,
2013-02-17 10:12:00,20.4,18.0,29.34,NW,319,8.0,15.0,91,0.00,,,0.00,weatherlink.com 1.10,2013-02-17 15:12:00,
2013-02-17 10:27:00,20.2,18.0,29.35,NW,312,1.0,10.0,91,0.00,,,0.00,weatherlink.com 1.10,2013-02-17 15:27:00,
2013-02-17 10:42:00,20.3,18.0,29.35,WNW,286,3.0,14.0,91,0.00,,,0.00,weatherlink.com 1.10,2013-02-17 15:42:00,
2013-02-17 10:58:00,20.3,18.0,29.35,NW,305,4.0,13.0,92,0.00,,,0.00,weatherlink.com 1.10,2013-02-17 15:58:00,
2013-02-17 11:12:00,20.6,19.0,29.36,NW,326,0.0,13.0,92,0.00,,,0.00,weatherlink.com 1.10,2013-02-17 16:12:00,
2013-02-17 11:27:00,20.9,19.0,29.35,NW,324,2.0,10.0,91,0.00,,,0.00,weatherlink.com 1.10,2013-02-17 16:27:00,
2013-02-17 11:42:00,21.3,19.0,29.35,NNW,328,3.0,8.0,91,0.00,,,0.00,weatherlink.com 1.10,2013-02-17 16:42:00,
2013-02-17 11:57:00,21.6,19.0,29.35,NNW,330,6.0,11.0,90,0.00,,,0.00,weatherlink.com 1.10,2013-02-17 16:57:00,
2013-02-17 12:13:00,21.8,19.0,29.35,NW,312,5.0,13.0,89,0.00,,,0.00,weatherlink.com 1.10,2013-02-17 17:13:00,
2013-02-17 12:27:00,22.4,19.0,29.35,NW,308,6.0,14.0,86,0.00,,,0.00,weatherlink.com 1.10,2013-02-17 17:27:00,
2013-02-17 12:42:00,22.8,18.0,29.36,SSW,213,3.0,15.0,81,0.00,,,0.00,weatherlink.com 1.10,2013-02-17 17:42:00,
2013-02-17 12:57:00,23.1,17.0,29.36,NW,314,3.0,19.0,77,0.00,,,0.00,weatherlink.com 1.10,2013-02-17 17:57:00,
2013-02-17 13:12:00,23.2,16.0,29.37,SW,224,3.0,16.0,74,0.00,,,0.00,weatherlink.com 1.10,2013-02-17 18:12:00,
2013-02-17 13:27:00,23.2,16.0,29.38,NW,307,6.0,14.0,73,0.00,,,0.00,weatherlink.com 1.10,2013-02-17 18:27:00,
2013-02-17 13:42:00,23.1,16.0,29.38,NNW,335,2.0,14.0,73,0.00,,,0.00,weatherlink.com 1.10,2013-02-17 18:42:00,
2013-02-17 13:57:00,23.0,15.0,29.39,NNE,30,4.0,19.0,70,0.00,,,0.00,weatherlink.com 1.10,2013-02-17 18:57:00,
2013-02-17 14:13:00,23.1,14.0,29.39,NW,318,4.0,21.0,69,0.00,,,0.00,weatherlink.com 1.10,2013-02-17 19:13:00,
2013-02-17 14:28:00,23.4,15.0,29.39,NNW,339,9.0,18.0,69,0.00,,,0.00,weatherlink.com 1.10,2013-02-17 19:28:00,
2013-02-17 14:43:00,24.0,13.0,29.40,NW,313,6.0,16.0,64,0.00,,,0.00,weatherlink.com 1.10,2013-02-17 19:43:00,
2013-02-17 14:58:00,24.1,13.0,29.41,West,277,5.0,15.0,63,0.00,,,0.00,weatherlink.com 1.10,2013-02-17 19:58:00,
2013-02-17 15:13:00,24.4,13.0,29.41,West,267,4.0,16.0,63,0.00,,,0.00,weatherlink.com 1.10,2013-02-17 20:13:00,
2013-02-17 15:28:00,24.5,13.0,29.42,West,264,0.0,21.0,62,0.00,,,0.00,weatherlink.com 1.10,2013-02-17 20:28:00,
2013-02-17 15:43:00,24.5,13.0,29.43,NNW,338,11.0,25.0,62,0.00,,,0.00,weatherlink.com 1.10,2013-02-17 20:43:00,
2013-02-17 15:58:00,24.7,12.0,29.44,NNW,335,0.0,10.0,60,0.00,,,0.00,weatherlink.com 1.10,2013-02-17 20:58:00,
2013-02-17 16:13:00,24.7,12.0,29.44,NW,315,3.0,16.0,59,0.00,,,0.00,weatherlink.com 1.10,2013-02-17 21:13:00,
2013-02-17 16:28:00,24.9,11.0,29.46,NNW,347,10.0,15.0,55,0.00,,,0.00,weatherlink.com 1.10,2013-02-17 21:28:00,
2013-02-17 16:43:00,24.9,11.0,29.46,NE,54,7.0,13.0,55,0.00,,,0.00,weatherlink.com 1.10,2013-02-17 21:43:00,
2013-02-17 16:58:00,25.1,10.0,29.46,West,271,1.0,14.0,54,0.00,,,0.00,weatherlink.com 1.10,2013-02-17 21:58:00,
2013-02-17 17:14:00,25.2,10.0,29.47,NW,316,9.0,17.0,52,0.00,,,0.00,weatherlink.com 1.10,2013-02-17 22:14:00,
2013-02-17 17:28:00,25.2,10.0,29.48,NNW,333,2.0,13.0,52,0.00,,,0.00,weatherlink.com 1.10,2013-02-17 22:28:00,
2013-02-17 17:43:00,25.4,10.0,29.50,WNW,300,4.0,19.0,53,0.00,,,0.00,weatherlink.com 1.10,2013-02-17 22:43:00,
2013-02-17 17:58:00,25.6,9.0,29.50,North,350,5.0,13.0,50,0.00,,,0.00,weatherlink.com 1.10,2013-02-17 22:58:00,
2013-02-17 18:13:00,25.8,8.0,29.50,SW,217,8.0,13.0,48,0.00,,,0.00,weatherlink.com 1.10,2013-02-17 23:13:00,
2013-02-17 18:28:00,25.9,9.0,29.52,SW,217,7.0,15.0,48,0.00,,,0.00,weatherlink.com 1.10,2013-02-17 23:28:00,
2013-02-17 18:43:00,25.4,9.0,29.52,West,279,5.0,20.0,50,0.00,,,0.00,weatherlink.com 1.10,2013-02-17 23:43:00,
2013-02-17 18:58:00,24.9,8.0,29.53,WNW,290,1.0,18.0,49,0.00,,,0.00,weatherlink.com 1.10,2013-02-17 23:58:00,
2013-02-17 19:13:00,24.4,8.0,29.54,West,277,2.0,13.0,50,0.00,,,0.00,weatherlink.com 1.10,2013-02-18 00:13:00,
2013-02-17 19:28:00,23.8,8.0,29.54,West,275,16.0,16.0,51,0.00,,,0.00,weatherlink.com 1.10,2013-02-18 00:28:00,
2013-02-17 19:43:00,23.5,7.0,29.55,West,268,4.0,17.0,50,0.00,,,0.00,weatherlink.com 1.10,2013-02-18 00:43:00,
2013-02-17 19:58:00,23.2,7.0,29.55,WNW,299,3.0,19.0,50,0.00,,,0.00,weatherlink.com 1.10,2013-02-18 00:58:00,
2013-02-17 20:13:00,22.7,7.0,29.55,WSW,243,6.0,18.0,51,0.00,,,0.00,weatherlink.com 1.10,2013-02-18 01:13:00,
2013-02-17 20:28:00,22.1,7.0,29.56,NW,312,5.0,16.0,52,0.00,,,0.00,weatherlink.com 1.10,2013-02-18 01:28:00,
2013-02-17 20:43:00,21.7,6.0,29.57,WNW,290,3.0,18.0,52,0.00,,,0.00,weatherlink.com 1.10,2013-02-18 01:43:00,
2013-02-17 20:58:00,21.1,7.0,29.58,NW,315,3.0,25.0,54,0.00,,,0.00,weatherlink.com 1.10,2013-02-18 01:58:00,
2013-02-17 21:13:00,20.8,6.0,29.59,West,271,8.0,22.0,53,0.00,,,0.00,weatherlink.com 1.10,2013-02-18 02:13:00,
2013-02-17 21:28:00,20.5,7.0,29.60,NW,318,9.0,20.0,55,0.00,,,0.00,weatherlink.com 1.10,2013-02-18 02:28:00,
2013-02-17 21:43:00,20.2,6.0,29.60,WSW,250,10.0,14.0,54,0.00,,,0.00,weatherlink.com 1.10,2013-02-18 02:43:00,
2013-02-17 21:58:00,19.9,6.0,29.62,West,271,0.0,11.0,55,0.00,,,0.00,weatherlink.com 1.10,2013-02-18 02:58:00,
2013-02-17 22:13:00,19.5,6.0,29.62,WNW,288,7.0,18.0,55,0.00,,,0.00,weatherlink.com 1.10,2013-02-18 03:13:00,
2013-02-17 22:28:00,19.2,5.0,29.63,West,274,4.0,15.0,55,0.00,,,0.00,weatherlink.com 1.10,2013-02-18 03:28:00,
2013-02-17 22:44:00,19.0,5.0,29.64,NW,306,5.0,14.0,55,0.00,,,0.00,weatherlink.com 1.10,2013-02-18 03:44:00,
2013-02-17 22:58:00,18.7,5.0,29.65,West,277,4.0,13.0,55,0.00,,,0.00,weatherlink.com 1.10,2013-02-18 03:58:00,
2013-02-17 23:14:00,18.4,5.0,29.65,WNW,302,3.0,15.0,56,0.00,,,0.00,weatherlink.com 1.10,2013-02-18 04:14:00,
2013-02-17 23:28:00,18.0,5.0,29.66,West,266,5.0,16.0,56,0.00,,,0.00,weatherlink.com 1.10,2013-02-18 04:28:00,
2013-02-17 23:44:00,17.7,4.0,29.66,West,281,2.0,14.0,56,0.00,,,0.00,weatherlink.com 1.10,2013-02-18 04:44:00,
2013-02-17 23:58:00,17.6,4.0,29.67,NW,313,8.0,16.0,56,0.00,,,0.00,weatherlink.com 1.10,2013-02-18 04:58:00,